Weather History for Friday Harbor, WA

Change the Weather History Date:

Monday, January 21, 2013

  Actual Average Record
Temperature  
Mean Temperature 38 °F -  
Max Temperature 42 °F 44 °F 55 °F (2005)
Min Temperature 34 °F 36 °F 27 °F (2008)
Degree Days  
Heating Degree Days 27    
Moisture  
Dew Point 35 °F    
Average Humidity 90    
Maximum Humidity 100    
Minimum Humidity 79    
Precipitation  
Precipitation 0.00 in - - ()
Sea Level Pressure  
Sea Level Pressure 30.20 in    
Wind  
Wind Speed 3 mph (NE)    
Max Wind Speed 7 mph    
Max Gust Speed -    
Visibility 10 miles    
Events      
Averages and records for this station are not official NWS values.
T = Trace of Precipitation, MM = Missing Value Source: NWS Daily Summary

Daily Weather History Graph

Daily Weather History Graph

Search for Another Location

Airport:

Trip Planner

Search our weather history database for the weather conditions in past years. The results will help you decide how hot, cold, wet, or windy it might be!

Date:

Astronomy

Jan. 21, 2013 Rise Set
Actual Time 7:53 AM PST 4:53 PM PST
Civil Twilight 7:18 AM PST 5:28 PM PST
Nautical Twilight 6:40 AM PST 6:07 PM PST
Astronomical Twilight 6:03 AM PST 6:44 PM PST
Moon 12:35 PM PST (1/21) 3:28 AM PST (1/21)
Length of Visible Light 10h 10m
Length of Day
9h 00m
Waxing Gibbous, 76% of the Moon is Illuminated
Jan 21
Waxing Gibbous
Jan 26
Full
Feb 3
Last Quarter
Feb 9
New
Feb 17
First Quarter

Hourly Weather History & Observations

Time (PST) Temp. Windchill Dew Point Humidity Pressure Visibility Wind Dir Wind Speed Gust Speed Precip Events Conditions
1:53 AM 37.0 °F 34.5 °F 36.0 °F 96% 30.29 in 10.0 mi Variable 3.5 mph - N/A   Overcast
2:53 AM 37.0 °F 31.6 °F 35.1 °F 93% 30.28 in 10.0 mi Variable 6.9 mph - N/A   Overcast
4:53 AM 36.0 °F 32.1 °F 35.1 °F 97% 30.25 in 10.0 mi Variable 4.6 mph - N/A   Overcast
5:53 AM 36.0 °F - 35.1 °F 97% 30.25 in 10.0 mi Calm Calm - N/A   Overcast
6:14 AM 35.6 °F 32.8 °F 35.6 °F 100% 30.23 in 10.0 mi North 3.5 mph - N/A   Overcast
6:53 AM 35.1 °F - 33.1 °F 92% 30.23 in 10.0 mi Calm Calm - N/A   Scattered Clouds
7:53 AM 34.0 °F - 34.0 °F 100% 30.23 in 10.0 mi Calm Calm - N/A   Overcast
8:53 AM 36.0 °F 32.1 °F 34.0 °F 93% 30.23 in 8.0 mi NNE 4.6 mph - N/A   Overcast
9:53 AM 37.9 °F 32.7 °F 35.1 °F 89% 30.24 in 10.0 mi NNE 6.9 mph - N/A   Overcast
10:53 AM 37.9 °F 35.5 °F 35.1 °F 89% 30.25 in 10.0 mi NW 3.5 mph - N/A   Overcast
11:51 AM 41.0 °F - 35.6 °F 81% 30.23 in 10.0 mi Calm Calm - N/A   Partly Cloudy
11:53 AM 41.0 °F 38.0 °F 35.1 °F 79% 30.24 in 10.0 mi North 4.6 mph - N/A   Partly Cloudy
12:53 PM 42.1 °F 40.2 °F 36.0 °F 79% 30.22 in 10.0 mi ESE 3.5 mph - N/A   Partly Cloudy
1:53 PM 42.1 °F - 36.0 °F 79% 30.20 in 10.0 mi Calm Calm - N/A   Clear
2:53 PM 41.0 °F - 36.0 °F 82% 30.17 in 10.0 mi Calm Calm - N/A   Clear
3:53 PM 41.0 °F - 36.0 °F 82% 30.17 in 10.0 mi Calm Calm - N/A   Clear
4:42 PM 37.4 °F - 33.8 °F 87% 30.16 in 10.0 mi Calm Calm - N/A   Mostly Cloudy
4:53 PM 36.0 °F - 34.0 °F 93% 30.17 in 10.0 mi Calm Calm - N/A   Overcast
5:11 PM 35.6 °F - 33.8 °F 93% 30.15 in 10.0 mi Calm Calm - N/A   Overcast
5:53 PM 37.9 °F - 35.1 °F 89% 30.16 in 10.0 mi Calm Calm - N/A   Overcast
6:53 PM 37.9 °F - 35.1 °F 89% 30.15 in 10.0 mi Calm Calm - N/A   Overcast
7:53 PM 37.9 °F - 36.0 °F 93% 30.16 in 10.0 mi Calm Calm - N/A   Overcast
8:53 PM 37.0 °F 33.3 °F 35.1 °F 93% 30.16 in 10.0 mi North 4.6 mph - N/A   Overcast
9:53 PM 37.9 °F 35.5 °F 35.1 °F 89% 30.16 in 9.0 mi ENE 3.5 mph - N/A   Overcast
10:53 PM 37.9 °F 35.5 °F 35.1 °F 89% 30.17 in 8.0 mi East 3.5 mph - N/A   Overcast
11:53 PM 37.0 °F 34.5 °F 35.1 °F 93% 30.16 in 7.0 mi East 3.5 mph - N/A   Overcast